[[{"header":{"parameterUnit":"m.s-1","parameterCategory":1,"la1":30.2991,"la2":30.254,"lo1":-89.0895,"lo2":-89.0444,"dy":0.0017,"dx":0.0017,"nx":28,"ny":28,"refTime":"2025-03-15T09:00:00:Z","depth":0,"parameterNumber":2,"parameterNumberName":"U-component_of_WINDS"},"data":[0,0,0,0,0,0,0,0,0,0,0,0,0,0,0,0,0,0,0,0,0,0,0,0,0,0,0,0,0,0,0,0,0,0,0,0,0,0,0,0,0,0,0,0,0,0,0,0,0,0,0,0,0,0,0,0,0,0,5.6329,5.633,0,5.6431,5.6432,5.6433,5.6368,5.6365,5.6362,5.6359,5.6465,5.6471,5.6476,0,0,0,0,0,0,0,0,0,0,0,0,0,5.6081,5.6086,5.6329,5.633,5.6332,5.6431,5.6432,5.6434,5.6369,5.6365,5.6361,5.6358,5.6463,5.647,5.6477,0,0,0,0,0,0,0,0,0,0,0,0,0,5.6187,5.6088,5.6329,5.6311,5.6311,5.6431,5.6432,5.6434,5.637,5.6365,5.636,5.6356,5.6461,5.6469,5.6478,5.6621,0,0,5.6504,5.6507,0,0,0,0,0,0,0,0,5.6181,5.6196,5.6313,5.6313,5.6312,5.6382,5.6384,5.6497,5.6371,5.6347,5.6359,5.6354,5.6441,5.6451,5.648,5.6626,5.6631,5.6504,5.651,5.6513,5.6516,0,0,0,0,0,0,0,5.6174,5.6191,5.6369,5.6314,5.6314,5.6299,5.6309,5.6405,5.6419,5.6349,5.6344,5.6357,5.644,5.6472,5.6482,5.6632,5.6504,5.6512,5.6517,5.652,5.6904,5.6908,0,0,0,0,0,0,5.6167,5.6186,5.6366,5.6372,5.6234,5.6307,5.6318,5.6364,5.6417,5.6421,5.6361,5.6354,5.646,5.6473,5.6486,5.6659,5.6513,5.6521,5.6526,5.6899,5.6905,5.691,0,0,0,0,0,0,5.6162,5.6184,5.6362,5.6278,5.6299,5.6316,5.6369,5.6369,5.6401,5.6427,5.6429,5.6391,5.6457,5.6474,5.6588,5.6661,5.6525,5.6533,5.6892,5.69,5.6907,5.7005,0,0,0,0,0,0,5.6156,5.6183,5.6236,5.628,5.6304,5.6462,5.6373,5.6374,5.6415,5.6407,5.6455,5.6459,5.6455,5.6576,5.6597,5.6671,5.6539,5.6886,5.6896,5.6905,5.6995,5.7015,5.7032,0,0,0,0,0,5.6147,5.626,5.624,5.6262,5.6372,5.6467,5.6481,5.6473,5.6421,5.6476,5.6493,5.6457,5.665,5.6588,5.6611,5.6689,5.6881,5.6893,5.6904,5.6987,5.7011,5.7031,0,0,0,0,0,0,5.6225,5.6265,5.6243,5.6373,5.6417,5.6455,5.6524,5.6498,5.6558,5.6548,5.6537,5.6548,5.6668,5.669,5.662,5.6832,5.6758,5.6774,5.6813,5.6836,5.6854,5.6846,5.6546,0,0,0,0,0,5.6257,5.633,5.6361,5.6473,5.6496,5.6507,5.6548,5.6538,5.6584,5.6602,5.6627,5.6673,5.6744,5.6791,5.6858,5.6998,5.7009,5.7063,5.7081,5.7096,5.711,5.7188,5.7213,5.6948,5.6948,5.6948,0,0,5.6324,5.6355,5.6402,5.649,5.6522,5.66,5.6523,5.6607,5.6664,5.6615,5.6725,5.6745,5.6796,5.6925,5.6983,5.6946,5.7186,5.7111,5.7122,5.7129,5.7203,5.7228,5.725,5.6956,5.6954,5.6953,0,0,5.6486,5.6517,5.6614,5.6649,5.67,5.6706,5.673,5.6773,5.6785,5.6895,5.686,5.6929,5.7051,5.7089,5.7125,5.7305,5.7274,5.7327,5.7422,5.7498,5.7519,5.7537,5.7603,5.7626,5.7341,5.7341,5.7341,0,5.6563,5.6677,5.6667,5.6755,5.6795,5.6754,5.6853,5.6888,5.6959,5.6988,5.6946,5.7101,5.7132,5.7269,5.7314,5.7343,5.7371,5.7321,5.7517,5.7535,5.7552,5.7614,5.7639,5.7347,5.7347,5.7346,5.7345,0,5.677,5.685,5.6923,5.6992,5.7041,5.7134,5.7139,5.719,5.7177,5.7189,5.7303,5.7339,5.7413,5.7445,5.7433,5.7583,5.7559,5.7517,5.7443,5.7584,5.7642,5.7666,5.7356,5.7354,5.7352,5.7351,0,0,5.6982,5.7047,5.7073,5.7105,5.716,5.7222,5.7314,5.7387,5.7431,5.7482,5.756,5.7666,5.7629,5.7669,5.7661,5.7728,5.787,5.7679,5.768,5.7714,5.8039,5.8069,5.8097,5.7851,5.7855,5.7859,5.8035,0,5.7148,5.7308,5.7303,5.7453,5.7527,5.7491,5.7572,5.7615,5.7629,5.7695,5.7711,5.7786,5.7731,5.7755,5.782,5.7839,5.7935,5.7826,5.7924,5.7928,5.7912,5.8127,5.816,5.8324,5.8057,5.8061,5.8064,0,5.7362,5.7421,5.7578,5.7624,5.7655,5.7727,5.7795,5.7858,5.7907,5.7913,5.796,5.7942,5.8037,5.7961,5.8093,5.8019,5.8059,5.8075,5.8081,5.809,5.8004,5.8142,5.8376,5.8401,5.8099,5.8096,5.8094,0,5.7503,5.7621,5.7731,5.7759,5.7815,5.7867,5.7893,5.7937,5.7982,5.8041,5.807,5.814,5.8179,5.8234,5.8236,5.818,5.8371,5.8294,5.8379,5.8379,5.842,5.8417,5.8664,5.8446,5.8446,5.8445,5.8445,0,5.7688,5.7786,5.7795,5.7862,5.7972,5.7966,5.8074,5.8095,5.8136,5.8208,5.8181,5.825,5.8248,5.8319,5.8322,5.8432,5.8449,5.8457,5.8457,5.846,5.8459,5.8486,5.8474,5.8452,5.845,5.8449,5.8448,0,5.7863,5.7872,5.799,5.8034,5.8047,5.8126,5.8164,5.8229,5.8241,5.8333,5.8354,5.8374,5.8456,5.8464,5.8558,5.856,5.8694,5.8681,5.8677,5.8675,5.876,5.8752,5.9032,5.9069,5.8827,5.8829,5.8831,0,5.7981,5.8056,5.8108,5.8154,5.8183,5.8258,5.8303,5.8301,5.8351,5.8414,5.8472,5.8551,5.8613,5.8746,5.8769,5.8842,5.8831,5.8925,5.8842,5.8844,5.8834,5.8829,5.8838,5.8941,5.8943,5.8945,5.8947,0,5.819,5.8191,5.8258,5.8328,5.8383,5.8438,5.8489,5.8529,5.8533,5.859,5.8673,5.8722,5.882,5.8899,5.8971,5.8999,5.8975,5.8973,5.8997,5.9001,5.8996,5.9,5.8721,5.8966,5.8965,5.8963,5.8962,5.8961,5.834,5.8405,5.8453,5.8529,5.8567,5.8616,5.868,5.8701,5.877,5.8849,5.8844,5.8936,5.8986,5.908,5.9114,5.9187,5.9156,5.919,5.9199,5.9207,5.9216,5.8984,5.92,5.9199,5.9199,5.9198,5.9198,0,5.8548,5.8577,5.8647,5.872,5.8781,5.8753,5.8808,5.8861,5.8942,5.899,5.9053,5.915,5.9228,5.9258,5.9334,5.9387,5.9378,5.9407,5.9403,5.941,5.9239,5.9211,5.9413,5.9413,5.9413,5.9413,5.9413,5.9413,5.8663,5.8773,5.8781,5.891,5.8938,5.9028,5.9063,5.9109,5.9147,5.9256,5.932,5.934,5.9382,5.9461,5.9531,5.9538,5.9568,5.9602,5.9605,5.9444,5.9422,5.9402,5.9375,5.9609,5.9609,5.977,5.9772,5.9773]},{"header":{"parameterUnit":"m.s-1","parameterCategory":1,"la1":30.2991,"la2":30.254,"lo1":-89.0895,"lo2":-89.0444,"dy":0.0017,"dx":0.0017,"nx":28,"ny":28,"refTime":"2025-03-15T09:00:00:Z","depth":0,"parameterNumber":3,"parameterNumberName":"V-component_of_WINDS"},"data":[0,0,0,0,0,0,0,0,0,0,0,0,0,0,0,0,0,0,0,0,0,0,0,0,0,0,0,0,0,0,0,0,0,0,0,0,0,0,0,0,0,0,0,0,0,0,0,0,0,0,0,0,0,0,0,0,0,0,-4.5166,-4.5167,0,-4.5256,-4.5258,-4.5259,-4.5256,-4.5255,-4.5254,-4.5253,-4.5343,-4.5346,-4.535,0,0,0,0,0,0,0,0,0,0,0,0,0,-4.4991,-4.4994,-4.5166,-4.5167,-4.5169,-4.5256,-4.5258,-4.5259,-4.5257,-4.5255,-4.5254,-4.5252,-4.5342,-4.5346,-4.535,0,0,0,0,0,0,0,0,0,0,0,0,0,-4.5072,-4.4995,-4.5166,-4.5178,-4.518,-4.5256,-4.5258,-4.5259,-4.5257,-4.5255,-4.5253,-4.5252,-4.534,-4.5345,-4.5351,-4.542,0,0,-4.5367,-4.5369,0,0,0,0,0,0,0,0,-4.5068,-4.5079,-4.5175,-4.5177,-4.518,-4.5243,-4.5229,-4.5313,-4.5257,-4.5228,-4.5253,-4.5251,-4.5311,-4.5319,-4.5339,-4.5424,-4.5428,-4.5367,-4.537,-4.5373,-4.5374,0,0,0,0,0,0,0,-4.5062,-4.5075,-4.5202,-4.5177,-4.5179,-4.5178,-4.5188,-4.5245,-4.5278,-4.523,-4.523,-4.5241,-4.5312,-4.5334,-4.5342,-4.5429,-4.5367,-4.5372,-4.5375,-4.5377,-4.5575,-4.5577,0,0,0,0,0,0,-4.5054,-4.507,-4.5199,-4.5205,-4.5118,-4.5183,-4.5194,-4.5225,-4.5278,-4.5284,-4.5242,-4.5241,-4.5326,-4.5335,-4.5345,-4.5429,-4.5373,-4.5378,-4.5381,-4.5573,-4.5576,-4.5578,0,0,0,0,0,0,-4.505,-4.5066,-4.5195,-4.5138,-4.5154,-4.5188,-4.5223,-4.5227,-4.525,-4.5287,-4.5293,-4.5259,-4.5325,-4.5337,-4.5401,-4.5432,-4.538,-4.5385,-4.5571,-4.5574,-4.5577,-4.5598,0,0,0,0,0,0,-4.5045,-4.5064,-4.5091,-4.5138,-4.5157,-4.5251,-4.5225,-4.5231,-4.5259,-4.5258,-4.5305,-4.531,-4.5325,-4.5394,-4.5407,-4.5438,-4.5389,-4.5568,-4.5572,-4.5576,-4.5595,-4.5602,-4.5608,0,0,0,0,0,-4.5039,-4.5093,-4.5093,-4.5108,-4.5192,-4.5253,-4.5264,-4.5279,-4.5262,-4.5289,-4.5313,-4.5309,-4.5427,-4.54,-4.5415,-4.5449,-4.5566,-4.5571,-4.5576,-4.5592,-4.56,-4.5607,0,0,0,0,0,0,-4.5048,-4.5099,-4.5099,-4.517,-4.5207,-4.5252,-4.5287,-4.5288,-4.533,-4.5326,-4.5344,-4.5354,-4.5418,-4.544,-4.5409,-4.5519,-4.5494,-4.5502,-4.5502,-4.551,-4.5516,-4.5509,-4.5393,0,0,0,0,0,-4.5058,-4.5104,-4.5147,-4.5205,-4.5224,-4.5252,-4.528,-4.5289,-4.5327,-4.5343,-4.5371,-4.5409,-4.5454,-4.5483,-4.5527,-4.5599,-4.5608,-4.5629,-4.5636,-4.5641,-4.5647,-4.5686,-4.5695,-4.5593,-4.5593,-4.5593,0,0,-4.508,-4.5114,-4.5141,-4.5208,-4.5238,-4.5284,-4.5265,-4.5316,-4.535,-4.535,-4.5412,-4.5435,-4.5478,-4.5546,-4.5577,-4.5566,-4.5677,-4.5647,-4.565,-4.5654,-4.5691,-4.5701,-4.571,-4.5597,-4.5596,-4.5596,0,0,-4.5143,-4.5173,-4.5225,-4.5256,-4.5302,-4.532,-4.5333,-4.5378,-4.5393,-4.5457,-4.5458,-4.5499,-4.5577,-4.5607,-4.5633,-4.5709,-4.5706,-4.5722,-4.5755,-4.5792,-4.58,-4.5808,-4.5834,-4.5843,-4.5729,-4.5729,-4.5729,0,-4.5163,-4.5234,-4.5252,-4.5302,-4.5331,-4.5335,-4.5387,-4.5416,-4.5473,-4.5493,-4.548,-4.5578,-4.5607,-4.5682,-4.5701,-4.5722,-4.5736,-4.5716,-4.5798,-4.5805,-4.5812,-4.5837,-4.5847,-4.573,-4.573,-4.573,-4.573,0,-4.5257,-4.5306,-4.5343,-4.5399,-4.5432,-4.5484,-4.5508,-4.554,-4.5547,-4.5567,-4.5631,-4.5666,-4.5717,-4.5736,-4.5743,-4.5812,-4.5804,-4.5794,-4.577,-4.5823,-4.5847,-4.5857,-4.5733,-4.5732,-4.5732,-4.5731,0,0,-4.5326,-4.5392,-4.5405,-4.5431,-4.5482,-4.552,-4.5572,-4.5623,-4.5649,-4.5689,-4.5732,-4.5799,-4.5791,-4.582,-4.583,-4.5864,-4.5921,-4.585,-4.5851,-4.5861,-4.5998,-4.6004,-4.6015,-4.592,-4.5922,-4.5924,-4.5995,0,-4.5393,-4.5485,-4.5503,-4.5583,-4.5628,-4.5633,-4.5678,-4.5714,-4.5735,-4.5776,-4.5798,-4.5845,-4.5831,-4.5849,-4.5882,-4.5907,-4.5948,-4.5902,-4.5959,-4.5961,-4.5947,-4.6028,-4.6034,-4.6099,-4.6004,-4.6006,-4.6007,0,-4.5484,-4.5527,-4.5611,-4.5657,-4.5676,-4.5717,-4.5765,-4.5805,-4.5846,-4.5858,-4.5891,-4.5898,-4.5951,-4.5926,-4.5999,-4.5967,-4.5992,-4.6008,-4.6011,-4.6015,-4.5986,-4.6033,-4.612,-4.6129,-4.6022,-4.6021,-4.602,0,-4.5524,-4.5603,-4.5664,-4.5686,-4.5741,-4.5769,-4.5793,-4.5833,-4.5862,-4.5904,-4.5924,-4.5971,-4.5997,-4.6033,-4.6053,-4.6033,-4.6125,-4.6101,-4.6135,-4.6135,-4.6153,-4.6151,-4.6244,-4.6172,-4.6171,-4.6171,-4.6171,0,-4.5597,-4.5648,-4.5683,-4.572,-4.5778,-4.5798,-4.5854,-4.5878,-4.5913,-4.5955,-4.5962,-4.6001,-4.6025,-4.6067,-4.6083,-4.614,-4.6152,-4.6163,-4.6166,-4.6162,-4.616,-4.6177,-4.6172,-4.6174,-4.6173,-4.6173,-4.6172,0,-4.5651,-4.5677,-4.5743,-4.579,-4.5803,-4.5844,-4.5884,-4.592,-4.5941,-4.5993,-4.6007,-4.604,-4.609,-4.6113,-4.6175,-4.6186,-4.6251,-4.6252,-4.6237,-4.6238,-4.6271,-4.6267,-4.6376,-4.6391,-4.631,-4.6311,-4.6312,0,-4.5694,-4.5734,-4.5786,-4.5815,-4.584,-4.5886,-4.5916,-4.5938,-4.597,-4.602,-4.605,-4.6101,-4.6142,-4.6222,-4.625,-4.6298,-4.6299,-4.6334,-4.6306,-4.63,-4.6298,-4.6295,-4.6298,-4.6338,-4.6339,-4.634,-4.634,0,-4.5769,-4.578,-4.5824,-4.5873,-4.591,-4.5949,-4.5988,-4.6011,-4.6039,-4.6074,-4.6125,-4.6158,-4.6221,-4.6271,-4.632,-4.6345,-4.6347,-4.6349,-4.636,-4.6354,-4.6344,-4.6349,-4.6249,-4.6346,-4.6346,-4.6345,-4.6345,-4.6345,-4.5818,-4.5854,-4.5896,-4.5945,-4.5977,-4.6013,-4.6049,-4.6075,-4.6119,-4.6173,-4.6184,-4.6238,-4.6279,-4.6346,-4.6372,-4.6414,-4.6406,-4.6421,-4.6425,-4.6428,-4.6429,-4.6339,-4.6424,-4.6423,-4.6423,-4.6423,-4.6423,0,-4.5892,-4.592,-4.5965,-4.6019,-4.6058,-4.6058,-4.6101,-4.6133,-4.6182,-4.622,-4.6261,-4.632,-4.6369,-4.6402,-4.6451,-4.6479,-4.6481,-4.6491,-4.6488,-4.6494,-4.6434,-4.642,-4.6488,-4.6488,-4.6488,-4.6488,-4.6488,-4.6488,-4.5935,-4.5994,-4.6011,-4.6087,-4.6114,-4.6168,-4.6193,-4.6226,-4.6256,-4.6323,-4.6363,-4.6386,-4.6422,-4.6474,-4.6518,-4.6527,-4.6544,-4.6554,-4.6562,-4.6505,-4.6498,-4.6491,-4.6478,-4.6558,-4.6558,-4.6618,-4.6618,-4.6619]}]]